Theta_e
309 309 309 308 309 309 309 309 308 308 307 306 306 307 308 308 308 308 308 308 308 307 307 308 307 307 306 305 304 303 302 301 300 299 297 296 294 293 293 293 293 293 294 294 294 294 295 295 295 295 294 294 294 294 294 293 293 292 290 289 289 288 288 288 288 288 289 289 288 288 287 287 288 288 288 288 288 288 288 288 288 288 289 289 290
308 308 308 308 308 308 308 308 308 307 307 307 306 306 307 308 308 307 308 308 308 308 308 307 307 307 306 306 305 303 303 302 301 300 299 297 295 294 293 293 292 293 293 293 294 294 294 294 294 294 294 294 294 294 293 293 292 291 290 289 288 288 288 288 288 288 288 288 288 287 287 287 287 287 287 287 287 287 288 287 287 287 288 288 289
306 306 306 307 307 307 306 306 306 306 306 306 307 306 307 307 307 307 308 308 307 307 307 307 307 307 306 306 305 304 303 302 301 301 299 298 297 295 294 293 292 292 293 293 293 294 294 294 294 294 294 294 294 293 293 293 292 291 290 289 288 288 288 288 287 287 287 288 288 287 287 286 287 286 286 286 286 287 287 286 287 287 287 288 288
307 307 306 306 306 306 306 306 305 305 306 306 306 307 307 306 306 306 306 306 307 307 307 306 306 306 306 306 305 305 304 303 302 301 300 299 298 296 295 293 293 292 292 293 293 293 294 294 294 294 294 294 293 293 293 292 292 291 289 289 288 288 288 288 287 287 287 287 288 287 286 286 286 286 286 286 287 286 286 286 286 287 287 287 287
307 307 306 306 306 305 305 305 305 305 305 306 306 306 306 306 305 305 304 304 305 306 306 306 305 305 306 307 307 306 305 304 303 302 301 300 298 297 296 294 293 292 292 292 292 293 293 294 294 294 293 294 293 293 293 292 291 290 289 288 288 288 288 287 287 287 287 287 287 287 286 286 286 286 286 287 286 286 286 286 286 287 287 286 286
305 305 305 306 306 305 305 305 304 305 305 305 306 305 304 304 304 304 303 303 303 303 304 304 304 305 306 306 306 306 305 304 303 302 302 301 299 298 296 295 294 293 292 292 292 292 293 293 293 293 293 293 293 293 292 292 290 289 289 288 288 288 287 287 287 287 287 287 287 287 287 286 286 286 286 286 285 285 285 286 286 286 286 286 285
304 304 305 305 305 304 303 304 304 304 305 305 305 305 304 304 304 304 303 302 302 301 302 303 303 304 305 305 305 305 304 303 303 302 301 301 300 299 298 296 295 293 292 291 292 292 292 292 292 293 293 293 292 292 292 291 290 289 288 288 288 287 287 287 287 287 287 287 286 286 286 287 287 286 286 285 285 284 284 285 285 285 285 285 285
303 303 304 304 305 303 302 302 302 303 304 304 304 305 305 305 305 304 303 302 302 301 301 302 302 302 303 303 303 303 302 302 301 301 301 300 300 299 298 297 296 294 293 292 291 291 291 291 291 292 292 292 292 292 291 290 289 288 288 288 288 287 287 287 287 287 287 286 286 286 286 286 286 286 285 285 284 284 283 284 284 284 284 284 284
303 303 302 302 303 303 302 301 300 301 302 303 303 304 304 304 304 303 302 302 301 301 300 300 300 300 301 300 300 300 301 301 301 300 301 300 300 299 298 298 296 295 294 292 291 291 291 291 291 291 291 291 291 291 290 289 288 288 288 288 287 287 287 287 287 287 286 286 286 287 286 286 286 285 285 284 284 283 283 283 283 284 284 284 284
301 302 302 301 301 302 302 301 300 300 300 301 302 302 303 303 303 303 302 301 301 300 299 299 299 299 300 299 298 298 299 300 300 300 300 300 300 299 298 297 296 295 294 293 291 291 290 290 290 290 290 290 290 290 289 289 288 288 288 287 287 287 287 287 287 286 286 286 287 286 286 286 286 285 284 284 283 283 283 283 283 283 283 284 284
298 299 300 301 301 300 301 301 301 300 299 299 300 300 301 301 302 302 301 301 300 299 299 299 299 299 299 298 298 298 298 298 299 299 299 299 299 298 297 297 297 296 294 293 292 291 290 290 290 290 290 290 290 290 289 288 288 287 287 287 287 287 287 287 286 286 286 287 287 286 286 286 285 284 284 283 282 282 282 282 282 282 282 282 283
295 296 297 299 300 300 299 300 299 299 298 298 298 299 299 299 300 300 300 300 299 299 299 299 299 299 299 298 298 297 297 297 298 298 298 297 297 297 297 296 296 296 295 293 292 291 290 290 290 290 290 290 290 290 289 288 288 287 287 286 286 287 287 286 286 286 287 287 287 286 286 285 284 284 283 282 282 281 281 280 280 280 280 279 280
293 293 295 296 297 298 298 299 298 298 298 297 297 296 297 297 298 298 298 299 298 298 298 299 299 299 299 299 298 297 296 296 296 297 297 296 296 296 296 295 295 295 294 293 292 291 290 289 289 290 290 290 290 289 289 288 287 287 286 286 286 287 286 286 286 287 287 287 286 286 285 284 284 283 283 282 281 281 280 279 279 278 279 278 278
291 292 293 294 295 295 296 297 297 298 298 297 296 295 295 296 296 296 297 297 297 297 297 298 298 298 298 298 297 296 296 295 295 295 295 295 295 295 295 294 294 294 293 293 292 291 290 289 289 289 290 290 290 289 288 287 287 286 286 286 286 286 286 286 286 286 286 286 285 285 284 283 283 283 282 281 281 280 279 278 278 278 278 278 279
290 290 291 292 293 293 294 295 296 296 297 298 297 295 294 294 295 295 295 296 296 296 297 297 297 297 297 296 296 296 295 295 294 294 294 294 294 294 294 293 293 293 292 292 292 291 290 289 289 289 289 289 289 289 288 287 287 286 286 286 286 286 285 286 285 285 285 284 284 283 283 283 283 282 281 280 279 279 278 278 278 278 278 278 279
289 289 290 290 291 291 292 293 294 295 296 297 298 297 295 294 293 294 294 295 295 295 295 295 295 295 295 295 295 295 294 294 293 293 293 293 293 293 293 292 292 291 291 291 291 290 289 288 288 289 289 289 289 288 287 287 286 286 285 286 285 285 285 285 285 284 284 283 283 283 283 282 282 281 280 279 279 278 279 279 279 279 278 279 280
288 288 288 289 289 290 291 291 293 294 295 296 297 297 297 295 294 293 293 293 294 294 294 294 294 294 294 294 294 294 294 294 293 292 292 292 292 292 292 291 290 290 290 291 290 289 288 287 288 288 288 288 288 287 286 286 285 285 285 285 284 284 285 285 284 283 283 283 283 283 282 282 281 280 280 279 279 279 279 280 280 279 279 279 279
287 287 287 287 288 289 290 291 291 293 294 296 296 297 297 296 295 293 292 292 292 293 293 293 293 293 293 293 293 293 293 293 293 292 292 291 291 291 291 290 290 289 289 290 289 288 287 287 287 287 288 288 287 286 285 285 285 284 284 284 284 284 284 284 283 283 283 283 283 282 282 281 281 280 280 280 279 279 279 279 279 279 278 278 278
286 286 286 287 287 287 288 290 291 291 293 295 296 297 297 296 296 295 293 292 292 292 292 292 292 292 292 292 292 292 292 292 291 291 291 290 290 290 290 289 289 289 289 289 288 288 287 287 287 287 287 287 286 285 284 284 284 284 284 283 284 284 284 283 283 283 283 283 283 282 282 281 281 280 280 280 280 279 279 279 279 278 278 278 278
286 286 286 286 286 286 287 288 289 290 291 293 294 296 296 296 296 295 294 292 291 291 291 291 291 291 291 291 291 291 291 290 290 290 289 289 289 289 289 289 288 288 288 288 288 287 286 286 286 286 286 286 285 284 284 284 284 284 283 283 284 284 283 283 283 283 283 283 282 282 282 281 281 281 280 280 280 279 279 279 278 278 278 278 278
285 285 285 285 286 286 286 286 287 288 290 291 292 294 295 295 295 295 295 293 292 291 290 290 290 291 291 290 290 290 290 290 289 289 288 288 287 288 288 288 288 288 288 288 288 287 286 286 286 286 286 285 284 283 283 283 283 283 283 283 283 283 283 283 283 283 283 282 282 282 282 281 281 281 280 280 279 279 278 278 278 278 278 278 278
285 285 285 285 285 285 285 286 286 287 288 289 291 292 293 294 294 295 295 294 293 291 290 290 289 289 289 290 290 289 289 289 289 288 287 286 286 287 287 287 287 287 288 288 288 287 286 286 286 286 286 285 284 283 283 282 282 283 283 283 282 282 282 283 283 283 282 281 281 281 281 281 280 280 280 279 279 278 278 278 277 278 278 278 278
285 285 285 285 285 285 285 285 286 286 286 287 288 290 291 292 292 293 294 294 293 292 291 290 289 289 289 289 289 289 289 288 288 288 287 286 286 286 286 287 286 286 287 287 287 287 286 286 286 286 285 284 283 283 282 281 281 282 282 282 281 281 282 283 283 282 281 281 281 281 281 280 280 279 279 279 278 278 278 277 277 277 277 277 277
285 285 285 285 285 285 285 285 285 285 285 285 286 287 289 290 291 291 292 293 293 292 292 291 290 289 289 288 288 288 288 288 288 288 287 286 285 285 285 286 286 285 285 285 285 286 286 285 285 285 284 283 283 282 281 281 280 281 281 281 280 281 282 282 281 281 281 281 281 280 280 279 279 279 278 278 278 278 278 277 277 277 277 277 277
284 284 285 285 285 285 285 285 285 285 285 285 285 285 286 288 289 290 291 291 292 292 292 291 291 290 290 289 289 288 287 287 287 287 287 286 285 285 285 285 285 285 284 284 284 284 284 284 285 284 283 282 281 280 280 280 280 280 280 280 281 281 281 281 280 280 280 280 280 280 279 279 278 278 277 277 277 277 277 277 277 277 277 277 277
283 283 284 284 284 284 284 284 284 284 285 285 285 285 285 286 287 288 289 290 291 291 292 292 291 291 290 290 290 288 287 287 287 287 287 286 285 285 285 285 284 284 284 283 282 282 282 283 284 283 281 280 280 280 280 280 280 280 280 281 281 281 280 280 280 280 280 279 279 279 279 278 277 277 277 277 277 277 277 277 277 277 277 277 277
281 282 283 283 283 284 284 284 284 284 284 284 285 285 285 285 285 286 287 289 290 290 291 292 292 291 291 291 290 289 288 287 286 286 286 285 284 284 285 284 284 284 284 283 282 281 281 282 282 281 279 279 279 279 280 280 281 281 281 281 280 280 280 279 279 279 279 279 279 278 278 277 277 277 277 277 277 277 276 276 276 277 277 276 276
280 280 282 282 283 283 283 283 284 283 284 284 284 285 285 285 285 285 286 287 288 289 290 291 291 292 292 291 290 289 288 288 287 286 286 285 284 284 284 284 283 283 284 283 282 281 281 281 280 278 278 278 279 279 280 280 280 280 280 280 280 279 279 279 279 279 279 279 278 278 277 277 277 277 277 277 277 276 276 276 276 277 276 275 275
277 278 280 281 281 282 282 282 283 282 283 283 284 284 284 284 284 285 285 286 287 288 289 290 291 291 290 290 289 289 289 290 291 289 287 286 285 284 284 284 283 283 283 284 283 282 281 280 279 279 278 279 279 279 280 280 280 280 280 280 279 279 279 279 279 279 279 278 278 277 277 277 277 277 276 277 276 276 276 276 276 276 276 275 274
275 276 278 279 280 281 281 281 281 281 281 282 283 283 284 284 284 284 285 285 286 287 288 289 290 290 290 289 289 289 289 289 290 290 288 287 285 284 284 284 283 283 282 283 283 283 282 281 280 280 280 280 280 280 280 280 280 280 280 280 279 279 279 279 279 278 278 278 277 277 277 276 276 276 276 276 276 276 276 276 276 275 275 274 273
273 274 275 276 277 277 278 279 280 280 281 281 281 282 283 283 284 284 285 285 285 286 287 288 289 289 289 289 289 288 287 287 287 287 287 287 285 284 283 283 283 282 282 282 282 282 282 281 280 280 281 281 281 281 281 280 280 280 280 279 279 278 278 278 278 278 277 277 276 276 276 276 276 276 276 276 276 276 276 275 275 275 274 273 272
271 273 274 274 274 274 274 276 278 278 279 279 280 280 280 281 283 284 284 284 285 285 286 287 288 288 288 288 288 287 286 286 286 286 286 285 285 283 282 282 282 282 281 281 282 282 281 280 280 280 280 280 280 281 280 280 280 280 279 279 278 278 278 278 277 277 276 276 276 276 276 276 276 276 275 275 275 275 275 275 275 274 273 272 272
270 271 272 273 273 272 272 273 275 276 277 277 278 278 279 280 281 282 283 283 284 284 285 285 286 287 287 287 287 287 286 285 285 285 285 284 284 283 282 282 282 281 281 281 281 282 281 280 280 280 280 280 281 281 280 280 280 279 278 278 278 277 277 277 277 276 276 276 276 276 276 276 275 275 275 275 275 275 275 275 275 274 272 272 272
269 270 270 271 271 271 271 271 272 274 275 276 276 277 278 279 280 281 281 282 283 283 284 284 285 286 285 285 285 285 285 284 283 283 284 284 283 282 282 282 281 281 281 281 281 281 281 280 280 280 281 281 281 280 280 280 279 278 278 278 277 277 276 276 276 276 276 276 276 275 275 275 275 275 275 274 274 274 275 275 274 273 271 271 272
267 267 268 268 268 268 269 270 271 272 274 275 276 276 277 277 278 279 280 280 281 282 283 284 284 285 285 284 283 283 282 282 282 282 282 282 282 282 282 281 281 280 280 280 281 281 281 280 280 281 281 281 280 280 280 279 279 278 278 277 277 276 276 276 276 276 275 275 275 275 275 275 274 274 274 274 274 274 275 275 273 272 271 271 271
265 265 266 266 266 266 267 268 269 271 272 273 275 276 277 277 278 278 279 279 280 281 282 282 283 284 284 283 283 282 281 280 280 280 281 281 281 281 281 281 281 280 279 279 280 280 281 281 281 281 281 280 280 280 279 278 278 278 277 276 276 276 276 276 275 275 275 275 275 275 274 274 274 273 273 273 274 274 274 273 272 271 271 271 270
265 265 265 265 265 266 266 267 267 269 270 271 272 274 275 277 278 279 279 279 279 280 281 281 282 283 283 282 282 281 280 280 279 279 280 280 280 281 281 281 280 280 279 278 279 280 280 280 281 280 280 280 279 279 278 278 277 277 277 276 276 276 275 275 275 275 275 275 274 274 274 274 273 273 273 273 274 273 273 272 271 271 271 271 270
265 265 265 265 266 266 266 267 267 268 269 270 272 273 274 275 277 278 279 279 279 280 281 281 282 282 282 282 282 281 280 279 279 279 279 280 280 281 281 281 280 280 279 279 279 279 280 280 280 280 280 279 279 278 278 278 277 277 276 276 276 275 275 275 275 275 275 274 274 274 274 273 273 273 273 273 273 272 271 271 270 271 271 271 270
265 265 265 265 266 266 267 267 268 269 269 270 271 273 274 276 276 277 278 278 279 280 280 281 281 282 282 282 282 281 280 279 279 279 279 280 280 280 281 280 280 279 279 279 278 279 279 280 280 279 279 278 278 278 277 277 277 276 276 275 275 275 275 275 274 274 274 274 274 273 273 273 273 273 273 273 272 271 270 270 270 270 270 270 270
264 264 264 265 265 266 267 267 268 268 269 270 270 272 273 274 275 276 277 278 279 280 280 280 281 281 281 281 281 281 280 279 279 279 279 279 280 280 280 280 279 279 279 279 278 279 279 280 279 278 278 278 278 277 277 276 276 275 275 275 275 275 274 274 274 274 274 273 273 273 272 272 272 272 272 272 271 270 270 270 270 270 269 269 269
263 264 264 265 266 267 267 268 268 269 270 270 271 271 272 273 274 276 277 277 278 279 279 280 280 281 281 281 281 281 281 280 280 279 279 279 280 280 280 280 279 279 279 279 279 279 279 279 278 278 278 277 277 277 276 276 275 275 275 275 275 274 274 274 274 274 273 273 273 273 272 272 272 272 272 271 271 270 270 270 270 269 269 269 269
263 264 265 266 266 267 268 269 269 270 271 271 272 272 272 273 274 276 277 277 278 279 279 279 280 280 280 280 280 280 280 280 280 279 279 279 279 279 280 279 279 279 279 279 279 279 279 278 278 278 277 277 276 276 276 275 275 275 275 274 274 274 274 274 274 274 273 273 273 272 272 272 271 271 271 270 270 270 270 270 269 269 269 269 269
264 264 264 265 265 266 267 268 269 270 271 272 273 273 274 274 274 275 276 277 278 278 279 279 279 280 280 280 279 279 279 280 279 279 279 279 279 279 279 279 279 278 278 278 278 278 278 278 278 277 276 276 275 275 275 275 275 274 274 274 274 274 274 274 274 273 273 273 273 272 272 271 271 270 270 270 270 270 270 269 269 269 269 269 269
264 263 263 264 264 265 265 266 267 268 269 271 272 273 274 275 275 275 276 276 277 278 278 278 278 279 279 279 278 278 279 279 279 279 279 279 279 279 279 279 278 278 278 278 278 277 278 277 277 276 275 275 274 274 274 274 274 274 274 274 274 274 274 274 273 273 273 273 272 272 271 271 271 270 270 270 270 269 269 269 269 269 269 269 269
265 264 264 264 264 265 265 266 266 267 268 270 271 272 274 275 276 276 276 276 277 277 278 278 278 278 278 278 278 278 278 278 278 278 278 278 279 279 278 278 278 278 278 277 277 277 276 276 276 275 275 274 274 274 274 274 274 274 274 274 274 273 274 273 273 273 273 272 272 271 271 271 270 270 270 270 269 269 269 269 269 269 269 269 268
266 266 265 265 265 265 265 266 266 267 268 269 271 272 274 275 276 276 276 276 277 277 277 277 277 277 277 278 278 278 278 278 278 278 278 278 278 278 278 278 278 277 277 276 276 276 275 275 274 274 274 274 274 274 274 274 274 274 274 273 273 273 273 273 273 273 272 272 271 271 271 270 270 270 269 269 269 269 269 269 269 269 269 268 268
268 267 267 266 266 266 266 266 267 267 268 269 271 272 273 275 276 276 276 276 276 276 276 277 277 277 277 277 277 278 278 278 278 278 278 278 278 278 278 278 277 277 276 276 275 275 274 274 274 273 273 273 273 273 273 273 273 273 273 273 273 273 273 273 273 272 272 272 271 270 270 269 269 269 269 269 269 269 269 269 269 269 269 268 268
269 269 268 267 267 267 267 267 267 268 269 270 272 273 274 275 275 276 276 276 276 276 276 276 276 276 276 277 277 277 278 278 278 278 278 278 278 277 277 277 277 276 276 275 274 274 274 273 273 273 273 273 273 273 273 273 273 273 273 273 273 273 273 273 272 272 272 271 271 270 269 269 269 269 269 269 268 269 269 269 269 269 269 268 268
270 270 269 269 269 268 269 269 269 269 270 272 273 274 274 275 275 275 275 275 275 275 275 275 275 276 276 276 277 277 277 277 278 278 278 277 277 277 277 277 276 276 275 274 274 273 273 273 273 272 272 272 273 272 272 273 273 273 273 273 273 273 273 272 272 272 271 271 270 269 269 269 269 269 269 268 268 269 269 269 269 269 269 268 268
270 270 270 269 269 270 270 270 270 271 272 273 274 274 274 274 275 275 275 275 275 275 275 275 275 275 276 276 276 277 277 277 277 278 277 277 276 276 276 276 275 275 274 273 273 273 272 272 272 272 272 272 272 272 272 272 272 273 272 273 273 273 272 272 272 271 271 270 270 269 269 269 269 269 268 268 269 269 269 269 269 269 269 269 268
270 270 270 270 270 270 270 271 271 272 273 273 274 274 274 274 274 274 274 274 274 274 274 275 275 275 275 276 276 276 277 277 277 277 276 276 276 276 276 275 274 274 273 273 272 272 272 272 272 272 272 272 272 272 272 272 272 272 272 272 272 272 272 272 272 271 270 270 269 269 269 268 269 269 268 268 269 269 269 268 269 269 269 269 268
Wind_Speed
32 32 33 34 37 40 41 42 43 45 48 50 51 50 50 49 49 49 48 48 48 48 47 46 45 43 42 42 42 43 43 44 46 48 51 54 55 55 55 54 52 50 48 47 45 43 42 40 38 36 34 32 30 29 28 26 25 24 23 23 23 22 22 22 23 20 17 17 20 21 22 24 24 23 23 24 23 23 23 23 24 26 27 27 28
32 33 33 34 36 39 42 43 44 45 47 49 51 52 52 51 51 51 50 49 49 49 49 49 47 46 44 43 43 43 42 42 44 46 49 52 54 56 56 55 54 52 50 49 47 45 44 42 39 37 35 33 31 30 29 27 26 24 23 23 23 23 23 23 23 22 20 18 19 22 24 24 24 24 25 27 27 27 26 25 26 27 28 30 31
28 31 33 34 35 38 41 44 45 46 48 49 50 51 52 53 54 54 52 52 52 52 51 51 50 48 47 46 45 44 42 42 43 45 47 49 52 55 56 56 55 54 53 51 49 47 46 44 41 39 36 34 33 32 30 28 26 25 24 24 23 23 23 23 23 23 23 20 19 22 25 25 25 24 26 28 30 30 29 29 29 30 31 33 34
24 26 29 32 33 35 38 42 45 47 49 49 50 50 51 53 55 56 56 56 55 54 53 53 52 51 51 49 48 46 44 43 43 45 46 47 49 52 55 56 56 55 54 52 51 49 47 45 42 40 37 36 34 33 31 29 27 25 24 24 24 24 23 23 23 23 24 23 21 22 25 26 25 25 26 28 30 30 31 31 32 33 34 36 37
24 24 25 28 30 32 34 37 42 45 47 49 50 50 51 52 54 57 59 59 58 57 56 56 55 54 54 53 51 49 48 46 45 45 45 47 48 49 52 54 55 55 54 53 52 50 48 46 43 41 39 37 36 34 32 29 27 26 25 25 24 24 23 23 23 23 24 25 24 23 24 26 27 26 26 28 30 30 30 32 33 35 36 37 38
26 25 25 26 27 29 30 33 37 40 42 45 47 49 51 51 53 56 58 59 60 59 59 58 58 57 56 55 54 53 52 50 48 45 45 46 47 48 49 51 53 54 55 54 53 51 49 46 44 42 40 39 37 35 32 29 28 26 26 25 25 24 24 23 23 23 24 25 25 24 24 25 27 27 27 27 29 30 31 33 34 34 36 38 39
29 28 27 27 27 27 28 29 31 34 37 40 42 45 48 50 52 55 56 58 60 61 61 60 58 56 56 56 56 56 55 53 51 48 47 46 46 47 48 50 52 53 55 55 54 52 49 47 45 43 41 39 37 35 32 30 28 27 26 26 26 25 24 23 23 23 24 25 25 24 24 25 26 28 27 27 28 30 31 34 36 35 36 38 40
32 31 30 29 28 26 25 25 28 30 33 36 39 41 44 47 51 54 55 57 59 60 61 60 58 56 56 57 58 57 56 55 54 52 50 47 47 47 48 50 51 52 54 55 54 53 51 49 47 44 41 39 37 34 32 30 29 28 27 27 27 26 25 24 23 23 24 25 24 24 25 25 26 28 28 28 29 30 30 33 37 38 39 40 41
35 34 33 32 30 27 24 23 25 28 30 33 35 39 42 45 47 51 54 55 56 58 59 58 58 56 56 57 58 57 57 57 56 54 52 50 49 49 49 50 51 52 54 54 54 54 52 50 47 44 41 38 36 34 32 31 30 29 29 28 27 26 25 24 23 23 24 24 23 23 24 25 25 27 28 28 29 31 31 33 36 39 40 42 42
35 35 34 33 32 30 27 24 23 25 28 31 33 36 39 43 45 47 50 52 54 56 56 57 57 56 56 57 58 58 58 57 57 56 54 52 50 50 51 51 51 52 53 54 55 55 53 51 48 44 41 39 37 35 34 33 32 30 30 29 28 27 26 24 23 23 24 23 23 23 24 24 24 25 27 28 29 30 32 34 37 39 41 44 46
34 34 34 34 33 31 29 27 25 24 25 28 31 34 36 40 43 45 47 50 52 53 54 55 55 55 56 57 58 59 59 58 57 55 54 53 51 51 52 52 51 52 53 54 56 56 55 53 49 45 43 41 39 37 36 34 33 32 31 29 27 27 26 24 23 24 24 23 22 22 23 24 23 24 26 27 28 29 31 33 36 39 40 44 48
35 35 34 34 34 33 32 30 27 26 24 24 27 31 34 38 42 44 46 48 50 51 52 52 52 53 54 56 58 59 59 58 56 55 54 53 52 52 52 52 52 53 53 54 55 56 56 54 50 47 45 43 41 39 37 36 34 32 30 28 28 27 25 24 24 24 23 23 22 21 22 23 23 24 24 25 27 28 30 32 34 37 39 41 45
36 35 35 35 35 36 35 35 34 30 26 24 24 27 32 37 40 43 44 46 48 50 50 50 50 51 53 56 58 58 58 58 57 55 54 53 53 52 53 54 54 53 53 53 54 56 56 54 51 48 46 44 42 40 38 37 35 32 30 29 28 27 25 24 25 24 23 22 22 21 20 22 23 23 23 24 25 27 30 32 34 35 38 39 41
37 37 36 35 36 37 37 37 37 37 33 27 24 25 28 33 37 39 42 44 46 48 48 49 50 51 52 54 55 56 57 57 57 55 54 53 53 53 54 55 54 53 52 52 53 55 55 54 51 49 46 44 42 41 39 37 35 33 31 30 29 26 25 25 24 23 21 21 21 20 19 20 23 23 22 22 24 26 29 31 33 35 38 40 42
38 38 37 37 36 37 38 38 38 37 37 34 29 26 26 29 32 35 38 41 44 45 46 48 50 51 52 52 53 54 55 56 56 55 54 53 52 52 54 55 56 55 52 51 52 53 54 53 51 48 46 44 42 41 39 37 36 34 32 30 28 26 25 24 23 21 20 19 20 20 20 20 21 22 21 21 22 24 27 29 32 35 38 41 43
39 39 39 39 38 37 37 38 38 38 37 37 35 30 26 26 28 31 35 38 40 42 44 46 48 49 50 51 52 53 53 54 55 55 54 53 52 53 55 57 57 55 53 52 51 52 52 52 50 47 46 44 42 40 38 37 36 34 32 30 28 26 25 23 22 21 19 19 20 21 20 19 19 19 18 19 21 23 27 30 32 34 38 42 44
39 39 39 39 39 38 37 37 38 37 37 37 36 34 31 27 26 28 32 35 38 40 42 44 46 47 48 49 51 51 51 52 53 54 53 51 52 54 56 57 57 56 53 51 50 50 51 50 48 47 45 43 41 39 38 37 36 34 32 30 28 27 25 23 22 20 19 20 20 19 18 17 17 17 17 18 20 22 27 31 32 33 37 42 44
38 38 38 38 38 37 37 36 36 35 35 35 34 34 33 31 28 26 28 32 35 37 39 41 43 45 46 48 49 49 50 51 52 53 52 51 52 55 56 57 57 55 53 51 49 49 49 48 47 46 45 42 41 40 39 38 36 35 32 30 30 28 25 23 22 20 19 20 19 18 17 17 17 17 17 18 18 20 25 29 31 33 37 40 42
37 38 38 38 37 36 36 35 35 34 33 33 32 32 31 31 31 28 27 28 31 34 37 39 41 43 44 45 46 47 48 49 50 51 50 50 52 54 55 56 55 55 53 51 49 48 48 48 48 47 44 42 40 40 39 38 36 34 32 31 30 27 24 23 21 20 20 20 18 17 16 16 17 17 17 17 18 20 23 26 29 32 35 38 39
36 37 38 38 38 37 35 34 34 34 33 33 32 31 30 30 30 30 28 27 28 31 34 37 39 40 41 43 44 45 47 48 48 48 48 48 51 53 54 54 54 54 52 50 49 49 50 50 50 47 44 42 40 39 38 37 35 33 32 31 29 25 23 22 21 20 20 19 17 16 16 17 17 16 17 18 19 20 22 25 27 30 33 37 38
37 37 38 39 39 38 37 35 35 34 34 34 34 33 32 30 30 30 30 28 27 28 31 34 37 38 40 41 42 43 45 46 46 46 46 46 49 51 52 53 53 51 49 48 49 50 52 52 50 47 44 43 41 38 37 36 35 33 31 30 27 24 22 22 21 21 20 17 16 17 17 16 16 16 17 19 20 21 23 24 26 28 30 34 37
39 39 40 41 41 41 40 37 36 35 35 35 35 35 34 33 31 30 30 30 28 27 28 31 34 37 38 40 41 42 43 44 43 44 44 43 45 48 50 49 49 49 48 48 50 52 53 52 48 46 45 43 40 38 37 36 35 33 30 28 25 23 22 23 22 20 18 17 17 17 16 15 16 16 17 19 21 22 24 25 26 27 29 31 34
40 41 42 42 43 44 43 41 39 37 36 35 35 36 35 35 34 32 31 32 31 29 28 29 31 35 37 39 40 41 42 42 41 42 42 42 42 44 46 46 47 47 47 48 50 51 51 50 48 46 45 42 40 38 37 34 33 32 30 26 24 23 23 23 20 18 17 17 17 16 15 15 16 17 18 20 22 23 24 26 26 27 29 31 33
42 43 44 44 45 46 45 44 42 40 39 37 36 36 36 36 36 35 33 33 33 32 31 30 30 33 36 38 40 41 41 41 40 40 40 41 40 40 42 42 43 44 45 46 48 49 49 49 46 44 43 41 39 37 35 33 32 31 27 24 23 23 22 20 17 16 16 16 16 16 15 15 16 18 19 21 23 24 25 25 26 27 29 32 34
44 45 47 47 48 48 48 47 46 44 43 41 39 38 37 37 37 36 35 35 35 34 33 32 32 33 35 38 40 40 40 40 40 38 39 40 40 38 38 39 38 40 43 44 45 46 47 46 43 42 41 39 36 34 33 33 31 29 26 25 24 22 20 18 16 17 17 16 16 16 15 15 17 19 21 22 23 24 25 26 27 28 29 32 35
48 48 49 50 51 51 52 51 49 47 46 46 44 41 39 38 38 38 37 37 37 36 36 35 34 35 36 37 38 39 40 40 40 38 38 40 40 39 37 37 36 36 38 40 42 43 43 42 41 40 38 35 34 35 34 33 32 30 28 26 23 19 18 18 17 17 16 16 16 16 15 16 18 19 21 23 24 23 24 26 28 29 30 33 36
50 51 52 53 53 54 54 54 53 51 48 48 47 45 42 39 38 39 39 38 39 38 37 37 36 36 37 37 37 38 38 39 40 39 37 39 41 40 38 37 36 35 36 38 40 41 40 38 36 35 35 35 35 35 34 33 32 29 25 23 21 20 19 18 17 17 16 16 16 16 16 18 19 20 21 23 23 22 23 26 29 30 30 32 36
52 54 55 55 55 56 56 56 55 52 50 48 48 48 46 42 40 40 40 39 40 39 39 38 38 37 38 38 38 38 38 38 39 39 38 38 40 42 43 41 39 38 38 39 41 41 38 35 34 34 35 35 34 33 33 32 29 26 24 23 23 22 20 19 18 17 16 16 16 16 17 19 20 20 22 23 23 22 23 25 28 30 31 32 35
54 56 58 58 58 57 56 56 54 51 50 49 48 49 49 46 43 41 41 40 41 40 40 39 38 37 37 38 39 40 39 36 33 33 35 37 38 42 46 47 45 43 41 40 41 42 41 39 38 37 36 33 33 33 32 30 28 27 26 25 24 22 20 19 18 17 16 16 16 17 18 19 20 21 22 23 23 22 23 25 27 29 31 32 35
57 60 61 60 60 57 56 55 53 51 50 50 50 50 50 49 46 44 42 42 42 42 41 40 39 37 37 39 39 40 39 34 29 29 31 34 36 41 46 48 47 45 42 40 41 44 46 45 44 43 40 38 36 35 33 31 30 29 28 26 24 23 21 19 17 16 15 15 16 17 18 19 20 21 22 24 23 23 23 25 26 28 30 33 36
58 61 60 60 59 56 54 54 53 53 52 51 49 49 50 51 50 47 44 42 43 44 43 41 40 39 40 40 39 39 39 36 32 31 30 31 34 39 44 48 48 46 43 41 41 43 47 48 47 46 44 42 39 37 35 33 32 30 28 26 24 23 21 19 17 16 15 16 17 17 18 19 20 21 22 23 24 24 24 24 26 27 29 33 36
57 60 61 60 58 55 53 53 53 53 53 51 48 46 47 48 49 49 46 43 43 45 44 42 40 40 41 42 40 39 39 37 35 32 30 30 32 36 41 47 49 47 44 42 42 44 46 48 48 47 45 41 38 36 34 33 31 30 28 26 24 22 20 18 17 16 16 16 16 16 16 18 19 20 21 23 24 26 26 25 26 28 30 33 36
56 58 60 59 57 55 53 52 51 50 50 48 46 43 43 44 47 48 46 43 42 44 44 43 40 39 40 41 41 39 38 37 35 32 30 31 32 34 40 45 48 48 46 44 43 44 47 48 48 46 43 39 37 35 34 32 31 29 27 25 23 20 18 17 16 16 15 15 15 15 15 17 18 19 21 22 23 25 27 27 27 28 30 34 37
52 53 55 55 54 53 52 51 50 49 49 48 47 44 43 43 44 44 43 41 41 42 42 41 40 38 38 38 38 38 37 35 34 32 31 31 32 35 38 40 42 45 47 48 46 46 47 48 46 43 39 37 36 35 34 32 30 28 26 24 21 19 18 17 16 15 15 14 14 14 14 15 17 19 21 22 23 25 26 26 28 30 31 35 38
48 49 49 49 48 48 47 46 44 42 41 42 42 43 43 43 43 43 42 40 40 41 42 41 39 38 36 34 34 35 34 32 31 30 30 30 31 34 39 41 42 43 46 49 49 47 47 46 43 39 37 36 36 35 33 31 29 28 25 22 20 18 18 17 15 14 14 13 13 13 14 14 16 18 20 22 23 25 26 26 28 30 32 35 39
45 46 46 45 44 43 42 41 39 38 37 36 36 36 37 38 39 41 41 40 40 40 40 39 37 35 34 33 33 32 31 29 28 27 28 30 31 37 44 48 48 47 49 51 50 47 46 44 40 37 36 36 35 33 31 30 28 26 23 21 19 18 17 16 15 13 13 12 12 13 13 13 15 17 20 22 23 23 25 27 29 31 33 35 39
44 45 45 44 43 42 42 43 42 41 40 40 40 39 38 38 39 39 39 39 39 39 39 38 36 34 33 33 32 30 29 28 26 25 26 29 32 40 49 51 49 49 51 51 49 48 46 43 39 36 35 35 34 32 31 29 27 25 22 20 19 18 16 15 14 12 11 11 11 12 12 13 15 17 20 22 23 23 25 27 29 32 34 36 39
44 43 42 42 41 41 42 42 39 36 34 34 35 36 36 38 39 39 39 38 38 38 38 37 36 35 34 34 33 31 28 27 27 27 30 33 36 43 50 51 49 50 51 50 48 46 44 41 38 36 35 35 34 32 31 29 26 23 21 19 18 16 15 13 12 12 11 10 10 11 12 13 15 17 20 22 23 24 25 27 29 33 37 39 41
42 41 41 40 40 41 42 40 38 37 34 34 33 33 33 34 36 37 38 38 37 38 38 37 36 36 34 33 33 33 32 32 32 34 36 38 41 46 51 51 50 50 51 49 46 44 42 41 38 36 35 35 33 31 29 27 24 21 20 18 16 15 13 12 11 11 10 9 9 10 12 13 15 18 19 21 22 24 26 28 30 33 37 41 43
45 45 44 41 39 39 39 37 37 36 35 34 33 32 32 34 34 34 35 36 36 37 37 36 36 35 33 32 33 35 37 38 38 37 39 42 44 47 50 51 51 51 51 50 47 44 41 40 38 36 35 34 32 30 28 25 23 21 19 17 15 13 12 11 10 9 8 8 9 10 12 14 16 18 19 20 22 24 26 28 31 33 37 40 43
42 41 39 36 34 34 34 34 35 35 35 34 33 32 32 33 33 34 35 35 35 35 35 35 35 34 32 32 33 35 38 40 39 38 41 44 46 48 49 50 52 52 51 48 45 42 40 38 36 35 34 32 30 29 26 23 21 20 17 16 14 13 12 11 10 8 8 8 9 10 12 14 16 18 20 20 22 25 27 29 32 35 38 41 43
38 36 35 33 32 31 31 31 31 31 31 32 34 34 33 31 30 31 33 34 34 34 35 34 34 32 31 31 32 34 37 38 38 39 41 44 47 49 50 51 51 50 47 43 42 40 38 36 35 34 33 31 28 26 24 21 20 18 16 15 14 12 11 10 9 8 7 8 9 10 13 15 17 19 20 21 23 26 28 31 33 35 38 41 43
37 37 37 37 37 36 36 35 33 32 30 29 29 31 32 32 30 30 31 32 33 33 34 34 33 32 31 30 30 33 36 37 38 39 42 45 48 49 50 50 48 45 42 40 39 37 35 34 33 32 29 27 25 23 21 20 18 17 16 14 13 12 11 9 8 7 7 8 9 11 13 15 17 19 20 22 25 28 29 31 33 36 38 41 43
36 36 36 37 37 37 37 37 37 38 36 33 29 28 30 31 31 30 30 31 32 33 33 33 32 31 31 29 30 33 37 38 39 41 43 46 48 49 49 47 44 42 40 38 36 34 32 32 32 30 28 26 24 22 20 19 17 16 15 13 12 11 9 8 7 8 8 9 10 12 14 16 18 20 21 23 26 29 30 31 33 36 39 42 44
34 34 34 35 35 34 34 34 34 35 36 36 33 29 29 30 31 30 29 30 31 32 32 32 31 30 30 30 32 36 39 40 40 41 43 45 46 47 46 44 41 39 37 35 33 32 31 31 30 29 26 24 22 20 19 18 16 15 14 12 11 10 8 7 7 8 9 10 11 12 14 17 19 20 21 24 27 29 30 31 33 36 40 43 44
32 31 31 31 32 32 31 30 29 28 28 29 30 29 27 28 29 29 28 29 30 30 30 30 30 29 29 30 34 38 40 41 41 41 41 42 43 43 41 40 38 35 33 31 31 31 31 30 27 25 23 22 20 19 17 16 15 14 12 11 10 9 8 7 8 8 9 11 12 13 15 17 19 20 22 24 27 29 30 30 32 36 40 42 44
29 28 27 27 27 27 27 27 26 24 22 22 25 26 26 26 27 27 27 27 28 28 28 28 28 28 29 31 35 39 41 40 40 39 38 39 40 39 38 38 36 33 31 31 31 31 30 28 25 23 21 19 18 17 16 15 13 12 11 10 9 8 8 8 8 9 10 11 13 14 15 17 19 20 22 25 28 29 29 29 32 37 40 42 44
26 24 22 21 21 21 22 23 22 20 18 17 20 22 23 24 25 25 25 25 25 25 26 26 26 28 30 33 36 38 39 38 37 37 36 37 37 37 37 36 34 31 31 32 32 30 27 25 23 21 19 18 16 15 14 13 12 11 10 9 9 8 8 8 9 10 11 12 13 13 15 17 19 21 23 26 28 28 28 29 32 37 40 42 44
22 19 16 16 15 15 16 16 15 14 13 15 18 19 21 22 23 23 23 23 23 24 25 26 27 29 31 32 34 36 36 36 36 35 35 35 35 36 36 33 31 30 31 31 30 27 24 22 20 18 17 16 15 13 12 11 10 9 9 8 8 9 9 9 10 11 11 12 13 14 16 18 19 22 24 26 27 27 27 29 33 37 40 43 45
19 16 13 13 13 13 13 12 11 11 13 15 18 18 19 19 20 20 21 21 22 24 25 26 28 29 30 32 34 34 34 34 33 33 34 34 35 35 32 30 30 30 30 29 26 24 22 20 18 17 16 14 13 11 10 9 8 7 7 8 8 9 10 10 10 11 11 12 13 15 16 17 19 23 26 26 26 26 27 29 32 37 40 43 45
16 14 10 8 8 8 8 8 9 10 12 13 14 15 15 16 17 18 19 21 22 24 26 27 28 29 30 32 33 33 32 31 31 32 33 34 33 32 30 30 31 31 29 26 24 22 20 18 17 15 14 12 11 9 8 7 6 6 6 7 8 9 10 10 10 10 10 10 12 14 16 17 20 24 26 25 24 25 27 29 32 36 39 42 45
Wind_Direction
318 306 292 282 276 272 268 265 261 258 255 252 251 252 252 250 247 246 246 246 246 247 246 246 245 244 243 242 242 241 241 240 240 239 238 237 236 235 235 235 234 234 233 232 233 234 236 237 239 240 243 245 248 251 255 258 261 264 266 268 269 270 272 274 278 283 285 288 295 298 299 303 308 313 313 312 312 313 314 316 317 317 316 316 315
322 312 300 291 286 281 274 270 265 261 259 257 255 253 254 254 252 249 248 246 246 247 247 247 247 246 245 243 242 241 241 240 240 240 239 238 236 235 235 234 234 233 232 232 232 233 234 235 236 238 240 242 245 249 252 255 258 261 264 266 267 269 271 274 278 283 287 291 296 299 300 303 307 313 315 315 316 317 318 321 321 319 319 320 320
321 313 303 297 294 288 280 273 268 264 262 261 259 258 257 256 255 254 251 249 247 247 247 248 248 248 247 245 243 242 241 240 239 239 239 238 237 236 236 235 234 234 234 233 233 233 233 234 234 236 238 240 243 247 249 252 255 258 261 262 263 265 269 272 277 282 287 292 295 297 299 301 307 315 317 316 317 320 323 324 323 322 323 324 324
316 310 306 302 298 293 288 281 274 269 266 264 263 263 261 259 258 257 255 252 250 249 248 248 248 248 248 247 245 243 241 239 239 239 239 239 239 238 237 236 235 235 235 235 234 233 233 233 234 235 236 239 242 244 247 250 252 255 257 258 260 262 265 270 275 281 286 291 294 295 297 301 308 314 315 315 317 321 323 324 324 325 327 327 325
315 308 305 304 301 297 293 287 281 276 273 271 269 267 265 262 260 258 256 254 253 251 250 248 247 247 247 247 247 246 243 240 238 238 239 238 239 239 239 238 237 236 236 236 235 235 234 234 234 235 236 238 240 243 245 248 250 252 253 254 256 258 261 267 273 279 285 290 292 294 298 304 309 313 314 315 317 319 321 322 324 326 326 325 324
324 316 309 305 302 300 297 292 289 286 282 278 274 271 268 265 263 261 259 257 255 253 251 249 248 248 248 248 248 247 245 242 239 238 238 238 238 238 239 239 238 237 236 236 236 235 234 234 234 234 236 238 240 242 244 246 247 249 250 252 253 255 259 264 270 276 282 286 290 295 300 305 308 311 313 315 317 319 322 322 322 323 324 322 321
334 327 319 311 306 305 304 300 296 292 288 284 281 276 274 271 269 267 264 260 257 255 254 252 251 250 251 251 250 248 246 243 240 237 237 237 236 236 237 238 237 237 236 236 235 235 234 233 233 234 235 237 238 240 242 244 245 246 247 248 250 253 257 262 268 274 279 282 288 295 301 305 307 308 311 315 317 321 323 322 321 322 322 319 319
343 337 329 320 314 312 311 306 299 294 289 285 281 278 276 274 272 270 266 262 259 257 256 255 253 252 252 252 250 248 247 245 242 238 236 235 235 235 235 236 236 236 235 235 235 234 233 233 233 233 234 236 238 240 241 243 244 244 245 246 249 252 256 261 266 271 274 280 287 295 299 302 305 308 312 318 320 321 323 322 320 320 320 319 320
350 346 340 332 324 317 311 307 301 295 289 284 279 276 275 274 273 271 268 265 262 258 256 255 253 253 253 252 249 247 246 245 244 241 237 235 234 233 233 234 234 234 234 234 233 233 233 232 232 232 233 234 237 239 240 241 242 243 244 246 248 252 256 260 264 268 272 279 287 293 296 300 305 309 314 318 319 319 321 320 317 318 319 319 320
355 353 350 345 337 325 312 304 301 297 292 287 283 279 276 274 273 271 269 267 263 258 256 254 254 254 254 252 250 248 247 246 245 243 240 237 235 234 233 232 232 233 233 232 232 231 231 231 230 230 231 233 235 236 238 239 240 242 244 246 248 252 256 258 261 265 270 278 285 289 293 299 305 310 313 316 318 318 319 318 317 319 320 319 320
355 356 356 355 351 343 329 313 300 295 295 293 289 284 280 276 273 271 269 266 262 258 256 255 255 254 254 253 251 250 249 248 246 244 242 239 237 235 234 233 232 231 231 231 231 230 229 228 228 228 229 230 232 234 236 238 239 240 242 244 247 251 254 256 260 264 269 276 282 286 293 300 305 309 311 314 315 316 317 319 319 321 322 321 320
351 352 354 355 355 356 353 342 324 307 299 296 294 289 284 278 274 270 267 265 262 259 257 256 255 254 254 254 253 252 251 250 248 246 243 240 237 236 236 235 234 232 231 231 230 230 229 227 226 226 228 230 231 233 235 237 238 238 240 242 245 249 252 255 257 262 268 275 280 286 294 299 302 306 309 311 313 315 317 319 320 320 320 319 318
348 348 349 350 351 354 356 357 352 339 320 304 298 294 288 280 275 272 269 266 262 259 258 257 256 255 254 254 254 253 252 250 248 246 244 241 238 236 236 236 235 234 233 231 230 229 228 227 226 226 227 229 230 232 234 235 236 236 237 239 244 247 250 252 256 262 269 276 280 286 292 295 298 302 305 307 311 315 318 319 319 318 316 314 313
348 347 346 346 347 348 349 352 356 355 346 329 312 301 293 286 280 274 270 266 262 261 261 259 257 256 254 253 253 252 251 251 249 246 244 241 238 236 236 236 236 235 234 233 231 230 228 227 226 227 227 228 229 231 232 234 235 235 236 238 242 245 246 250 255 261 268 273 278 283 287 289 292 295 299 306 313 317 318 315 312 310 309 309 310
347 347 347 346 346 346 346 346 348 352 353 348 336 320 304 294 287 279 273 269 266 264 263 260 258 256 254 253 252 251 251 250 248 246 243 241 238 237 236 236 235 235 234 233 232 231 229 228 227 228 228 229 230 231 232 233 234 235 236 238 240 241 243 248 253 258 264 270 274 278 279 282 287 293 302 312 314 312 308 303 304 306 306 307 308
345 345 346 346 346 345 344 344 344 345 348 350 348 340 324 307 297 288 280 274 269 266 263 260 258 256 254 252 251 250 250 248 247 246 243 240 238 237 236 235 234 233 232 232 231 230 228 227 227 228 228 229 230 231 232 233 234 234 236 237 238 238 240 244 249 253 259 263 266 270 275 281 289 295 302 306 303 301 301 300 305 309 307 306 307
342 344 344 344 344 344 343 342 342 342 342 344 346 346 340 327 311 297 286 279 273 269 266 263 260 257 255 252 251 250 249 248 246 245 243 240 238 236 235 234 232 232 231 231 230 229 227 227 227 228 228 228 229 230 230 231 231 232 233 234 235 236 238 241 245 248 252 256 261 268 275 282 287 290 293 295 297 300 302 304 309 310 306 306 308
337 339 340 341 341 341 340 340 339 338 339 339 340 342 343 339 328 310 294 285 278 273 269 266 262 259 256 253 252 250 249 248 246 244 243 240 238 237 236 234 232 231 230 229 228 228 226 226 227 227 227 227 228 229 229 229 229 229 231 231 233 235 237 240 242 243 248 253 258 264 272 279 283 287 290 293 297 301 302 305 308 307 305 306 308
333 334 334 335 336 336 336 336 335 334 334 335 335 335 336 338 335 325 309 294 285 278 272 267 264 261 258 255 252 250 249 248 245 244 242 239 238 237 236 234 233 230 228 227 226 225 224 225 225 225 225 226 227 228 228 229 228 229 230 231 233 236 237 239 241 243 247 251 256 262 269 275 278 283 288 293 299 301 301 302 303 303 304 304 306
329 329 328 328 329 330 331 331 331 331 330 329 330 330 330 331 332 329 320 306 293 282 275 269 266 263 260 256 253 250 249 247 244 243 240 238 237 237 235 234 233 231 228 227 225 223 223 223 223 223 223 224 225 226 228 230 229 228 229 231 234 236 237 239 242 247 250 253 258 263 267 273 278 285 291 295 300 300 298 299 300 301 302 303 305
324 324 324 325 324 325 326 327 327 327 326 325 324 325 326 325 325 325 321 312 299 288 280 273 268 265 261 258 255 252 250 248 244 241 238 236 236 237 236 235 235 232 230 228 227 225 223 223 222 222 223 223 223 223 226 229 230 229 229 232 234 235 236 239 243 248 252 256 260 264 269 275 281 287 291 295 298 298 298 299 299 300 300 302 305
320 320 320 320 321 321 322 323 323 323 323 322 319 319 320 321 320 319 316 311 303 294 285 277 271 267 263 260 256 253 251 248 244 240 237 233 234 237 237 236 235 234 232 231 228 226 225 225 224 224 224 223 222 221 223 226 229 229 228 229 230 231 234 239 243 246 252 257 262 266 271 276 280 286 291 294 297 298 298 298 298 300 301 302 302
315 315 316 316 316 317 317 318 319 320 320 319 316 313 313 315 315 314 311 307 302 295 287 280 274 269 265 260 257 253 251 248 244 240 237 232 231 236 239 237 236 236 235 233 231 228 227 226 226 225 224 223 220 219 221 223 225 227 227 226 227 229 234 240 245 248 252 258 264 269 274 279 283 289 293 295 296 297 298 300 301 302 303 302 300
310 310 311 312 312 313 314 314 314 315 315 315 313 310 308 308 309 310 307 303 298 293 288 282 275 271 268 263 259 255 251 248 244 240 237 232 228 231 237 237 235 235 233 232 231 231 229 227 226 225 224 222 219 218 219 218 219 222 223 223 224 229 237 244 247 250 255 260 266 271 276 282 287 292 294 295 297 299 300 302 304 304 304 303 302
307 307 308 308 309 310 311 311 311 311 311 310 309 308 306 304 304 305 304 299 294 291 288 283 277 273 270 266 263 258 253 249 245 240 236 231 225 225 233 236 234 233 232 230 230 231 229 227 226 224 222 219 214 212 213 213 214 216 217 221 226 232 238 242 245 251 258 262 266 271 277 285 289 291 294 296 297 301 304 304 305 306 306 306 304
304 304 304 305 306 307 307 308 308 308 307 306 305 305 303 301 299 299 299 296 293 290 287 284 279 275 271 269 266 261 255 251 247 241 236 231 222 219 227 233 232 232 231 229 228 228 227 226 227 224 218 212 209 209 210 211 212 215 218 224 230 232 235 240 245 251 257 261 266 274 281 286 288 290 294 296 299 304 307 307 308 310 310 309 308
301 300 301 302 302 303 304 305 305 304 303 302 301 301 300 298 295 293 292 292 291 289 286 283 279 276 274 271 268 262 257 253 248 241 233 227 220 214 217 225 226 226 227 225 223 224 224 224 224 218 209 205 207 211 213 213 214 218 221 224 227 228 232 239 244 249 255 260 268 277 283 285 288 292 294 296 300 307 310 310 311 312 313 313 312
296 296 297 298 298 299 300 300 300 300 299 299 298 297 296 295 293 289 287 287 288 287 286 283 280 278 276 273 268 262 256 252 249 244 236 227 218 210 211 217 220 220 221 220 218 219 221 219 214 207 203 205 208 211 213 214 215 218 219 220 223 226 231 237 241 246 254 261 270 278 282 285 289 293 296 298 303 311 313 312 312 313 315 318 317
294 294 294 295 295 295 296 296 296 296 295 295 294 293 292 292 290 287 285 283 282 283 283 282 281 280 277 273 268 262 258 257 256 252 245 237 225 213 211 215 217 218 219 218 215 214 214 213 211 209 208 211 213 213 213 212 212 214 216 218 222 225 229 235 239 244 252 261 270 277 281 286 291 294 298 302 308 314 314 312 314 316 318 320 319
293 293 294 294 293 293 292 292 292 291 291 291 290 290 289 288 287 286 284 281 279 278 278 278 279 278 274 271 268 265 265 267 267 259 249 241 232 220 214 215 218 218 216 215 214 213 211 210 211 213 213 213 213 212 211 210 211 213 215 218 221 224 228 232 236 242 252 261 270 276 281 288 293 296 301 306 310 314 315 314 316 319 321 321 319
292 292 292 291 291 290 289 288 288 287 287 287 286 285 285 285 284 283 282 279 276 275 274 274 274 272 270 268 267 265 264 263 259 254 247 240 232 221 213 214 217 217 215 212 211 211 212 211 211 212 213 212 210 208 207 208 210 212 214 217 219 222 225 229 233 241 251 258 265 274 282 288 293 298 303 308 311 314 316 318 320 322 324 322 318
289 288 288 288 287 286 285 285 285 284 284 284 282 281 280 280 280 280 280 276 273 272 271 270 269 266 265 265 265 262 260 256 252 248 243 238 230 217 210 213 217 217 215 214 213 213 213 213 212 212 210 209 207 206 206 207 208 210 213 216 218 220 223 228 233 242 249 256 264 273 280 287 294 300 305 309 313 316 318 320 323 324 325 322 318
286 286 286 286 285 284 283 282 282 280 280 280 279 277 276 275 275 276 276 273 271 269 268 267 265 262 260 261 263 262 259 254 250 245 239 235 228 213 205 210 216 215 214 214 215 215 213 213 213 212 210 207 206 205 205 205 206 208 211 213 216 218 223 229 236 244 251 258 266 274 280 289 296 301 306 311 315 317 318 320 324 326 325 322 322
286 285 284 284 283 283 282 281 280 279 278 276 273 271 269 268 269 271 270 268 265 263 262 262 261 258 255 254 257 260 258 252 247 242 235 231 224 209 201 204 210 213 216 217 217 215 213 212 212 211 209 207 205 204 203 203 204 206 207 209 213 217 224 231 238 245 253 261 269 277 284 293 299 304 309 314 317 318 318 321 326 327 325 323 324
287 285 284 283 282 281 281 282 282 281 279 277 276 273 269 265 264 263 262 261 259 258 258 259 258 255 253 250 249 252 253 249 244 238 231 227 219 205 199 201 201 203 210 215 216 215 215 214 213 210 207 206 204 203 203 202 202 204 204 205 210 216 225 233 238 245 253 261 271 279 286 295 303 309 314 317 317 318 321 326 329 327 324 325 326
287 286 284 283 281 279 278 278 276 274 271 270 270 270 270 267 264 261 259 257 255 254 256 258 258 255 252 247 243 242 241 240 238 233 226 222 211 198 197 201 200 198 202 208 211 214 216 216 214 210 206 205 203 202 201 200 201 201 200 202 208 216 224 232 238 245 254 261 270 279 288 299 309 314 315 316 317 321 326 330 329 326 326 327 327
287 285 284 283 282 281 280 278 276 274 271 267 264 262 261 262 262 261 259 256 254 252 253 254 253 250 244 238 234 231 228 228 230 227 220 214 204 197 198 201 200 199 202 205 208 212 214 215 213 210 207 204 201 199 199 199 199 198 198 201 208 215 222 230 237 245 254 261 270 283 294 305 314 317 317 317 321 326 330 330 329 328 329 329 325
286 284 283 283 282 281 279 277 276 273 271 270 269 266 263 260 258 256 256 255 254 253 251 249 247 245 242 237 231 223 216 214 214 212 209 206 200 198 201 202 200 201 205 208 208 210 212 212 210 208 206 203 200 198 198 198 197 195 197 202 208 214 220 228 236 244 253 263 274 289 301 309 315 319 319 321 326 331 332 330 329 330 330 329 326
284 282 281 280 279 277 275 273 271 269 267 266 265 265 263 260 256 253 253 253 252 250 247 244 242 242 243 239 229 217 208 204 204 202 201 201 200 199 202 203 202 204 207 209 208 209 210 209 207 204 201 199 197 196 196 195 193 194 197 202 207 213 219 227 236 245 256 269 281 293 305 313 317 320 322 325 330 333 332 330 330 329 328 327 326
283 283 282 280 277 274 271 269 268 267 266 266 265 264 262 260 258 256 253 251 249 247 244 241 240 241 240 235 226 215 207 204 204 202 200 200 200 200 202 203 203 205 207 209 210 211 210 207 204 200 197 195 195 194 193 192 191 193 197 200 205 212 218 226 236 246 257 272 286 299 309 315 319 321 324 329 334 334 333 331 331 329 327 325 326
286 286 285 280 276 273 270 268 267 267 266 265 265 265 264 263 261 258 253 251 250 248 245 242 241 242 239 235 229 222 214 210 208 206 203 201 200 200 202 204 205 206 208 211 212 213 210 206 202 198 195 194 193 191 190 189 190 193 196 199 202 210 218 226 236 248 259 276 294 306 311 314 318 321 326 332 336 336 335 334 331 329 328 327 327
285 282 278 273 269 268 267 267 269 271 271 268 266 265 263 263 262 257 252 250 250 249 246 244 242 240 237 234 229 222 217 214 211 207 204 202 201 201 203 206 207 208 211 213 215 214 210 204 199 196 194 192 190 188 188 189 190 192 195 198 201 208 218 227 239 252 265 283 300 307 309 313 318 322 328 335 338 338 338 335 331 329 329 329 329
285 280 276 272 267 264 263 263 264 267 268 270 271 270 265 261 258 255 251 250 250 249 245 242 240 236 233 229 222 215 214 213 210 208 206 203 202 202 205 206 207 209 212 215 214 211 207 200 195 191 190 188 187 187 188 189 190 192 195 198 202 209 217 229 245 260 275 291 301 304 307 314 320 325 330 336 339 340 338 333 329 329 330 330 331
290 284 279 276 272 269 266 263 261 261 260 260 265 271 269 260 253 250 249 247 248 247 242 238 234 230 226 219 209 206 208 210 209 208 207 205 203 203 205 206 206 208 212 211 208 204 199 194 189 187 185 184 185 187 188 190 191 194 197 200 205 212 221 235 252 268 283 294 299 303 309 316 323 327 331 337 340 338 334 330 329 330 331 332 332
295 288 282 278 275 273 271 268 265 263 260 257 257 263 268 262 254 250 248 245 244 242 238 233 228 224 219 210 201 200 205 208 208 208 207 205 204 205 205 206 207 209 208 204 198 193 190 187 186 185 184 183 184 186 188 191 193 196 200 204 210 217 229 244 261 277 291 297 299 304 311 318 325 329 332 337 338 334 329 328 330 332 333 333 333
300 293 286 280 276 274 273 273 271 269 265 258 253 255 262 263 257 253 251 246 242 239 235 229 225 221 215 207 201 200 204 207 208 207 206 206 206 205 205 205 204 202 198 193 188 185 183 182 183 183 182 183 185 186 189 193 196 200 206 210 217 227 240 255 270 287 297 298 301 308 315 321 327 330 333 336 334 328 325 328 332 334 335 335 334
307 298 289 283 279 276 273 274 274 271 266 258 251 251 257 262 260 255 250 245 239 235 230 226 221 216 210 205 202 202 204 206 206 206 206 207 205 203 202 199 195 191 187 184 182 180 179 179 180 180 180 183 185 187 192 197 201 206 214 219 227 239 253 266 281 293 299 299 304 311 317 321 326 331 334 333 327 321 323 330 334 335 336 336 336
317 308 297 288 283 279 277 277 277 272 262 253 250 252 257 260 258 252 245 239 235 230 225 219 212 208 205 203 202 202 204 204 204 204 206 205 202 198 195 192 189 186 183 179 177 177 177 177 178 179 180 183 186 190 196 202 207 214 223 232 241 253 267 277 287 295 299 301 304 309 314 321 328 332 331 325 318 317 325 333 335 335 337 337 338
331 327 315 304 297 292 289 287 283 273 260 251 250 252 253 253 249 243 238 233 227 221 216 211 207 205 203 201 201 202 202 202 202 201 200 198 193 189 187 187 186 183 180 175 174 174 174 175 177 178 180 184 189 192 198 206 214 223 234 244 256 266 274 281 288 296 299 298 300 306 315 324 330 328 322 317 313 318 329 335 334 335 337 338 339
347 347 338 324 315 311 308 302 290 275 263 254 250 247 245 241 237 232 227 221 214 210 208 207 205 204 203 202 201 201 200 199 199 197 195 190 185 182 182 182 181 178 175 172 171 172 172 174 177 179 181 185 189 193 200 210 219 230 244 257 266 273 279 286 294 299 298 296 300 310 320 326 325 318 313 311 312 321 332 336 334 333 336 338 340
3 3 357 340 322 310 300 285 270 259 252 246 240 236 230 224 219 214 210 206 203 201 201 201 201 201 200 200 200 199 197 195 193 191 187 183 180 180 180 179 175 173 171 170 170 170 171 173 176 178 181 185 189 193 201 212 223 237 254 268 274 279 287 293 295 297 297 295 300 311 319 319 315 310 308 308 314 325 334 335 332 331 335 338 341